Location: Rowland
(34.5359°N, 79.2929°W)
Time: 20:29:02
(UTC+00:00)

S-56A Canister/Altair - Pass Details

Date: 08 October 2022
Orbit: 638 x 2494 km, 38.9° (Epoch: 02 December)

Event Time Altitude Azimuth Distance (km) Brightness Sun altitude
Rises 02:16:37 0° 209° (SSW) 6,075 12.1 -41.8°
Reaches altitude 10° 02:20:57 10° 202° (SSW) 5,133 11.6 -42.6°
Enters shadow 02:24:37 19° 193° (SSW) 4,392 11.2 -43.2°
